Location: Framecourt
(50.3294°N, 2.3059°E)
Time: 05:59:01
(UTC+00:00)

Daily predictions for brighter satellites

Satellite Brightness Start Highest point End
(mag) Time Altitude Azimuth Time Altitude Azimuth Time Altitude Azimuth
Cosmos 2237 Rocket 4.5 00:26:53 20° N 00:26:53 20° N 00:28:53 10° NNE
CZ-2D R/B 4.5 00:43:19 10° NNE 00:45:07 19° NE 00:45:07 19° NE
Resurs 1-4 Rocket 4.5 00:44:52 10° NNE 00:46:32 18° NE 00:46:32 18° NE
SL-16 R/B 3.8 00:59:04 36° NNE 00:59:04 36° NNE 01:03:00 10° N
SL-16 R/B 4.1 01:06:44 25° N 01:06:44 25° N 01:09:15 10° NNE
Cosmos 2344 4.5 01:05:55 38° NW 01:06:50 39° NNW 01:14:41 10° NE
ATLAS 5 CENTAUR R/B 4.3 01:40:35 16° NNE 01:40:35 16° NNE 01:41:46 10° NE
ADEOS II 3.7 01:33:35 10° NNE 01:36:36 30° NE 01:36:36 30° NE
Cosmos 1697 Rocket 4.1 02:08:28 10° NNW 02:13:41 36° NE 02:18:53 10° ESE
Cosmos 1821 Rocket 4.1 02:17:02 69° NNE 02:17:02 69° NNE 02:22:31 10° N
ALOS 4.4 02:13:23 10° NE 02:16:54 21° E 02:17:49 20° ESE
Cosmos 2123 Rocket 4.2 02:17:56 10° N 02:24:11 68° ENE 02:24:56 62° ESE
CZ-2D R/B 3.3 02:23:04 10° N 02:26:25 35° NNW 02:26:25 35° NNW
Resurs 1-4 Rocket 3.3 02:24:30 10° N 02:27:37 32° NNW 02:27:37 32° NNW
Cosmos 1934 Rocket 4.2 02:35:19 56° SE 02:36:30 67° E 02:42:46 10° NNE
Cosmos 1140 Rocket 4.4 02:34:41 10° NNW 02:38:04 41° N 02:38:04 41° N
SL-16 R/B 4.0 02:44:10 22° NW 02:44:10 22° NW 02:46:34 10° NNW
Cosmos 1932 4.4 02:46:39 74° WNW 02:46:53 75° NW 02:53:23 10° NE
SL-16 R/B 4.4 02:48:36 13° NW 02:49:36 14° NNW 02:52:27 10° N
IDEFIX/ARIANE 42P 3.2 02:45:43 10° N 02:49:43 45° NNW 02:49:43 45° NNW
Cosmos 1980 Rocket 3.6 02:48:23 10° NNW 02:53:35 37° NE 02:58:46 10° ESE
USA 305 4.4 02:57:54 29° ESE 02:57:54 29° ESE 03:00:43 10° ENE
MSX 3.8 02:52:14 10° N 02:57:46 62° WNW 02:57:46 62° WNW
Aureole 3 4.4 03:05:01 37° ENE 03:05:01 37° ENE 03:07:22 10° NNE
CBERS-1 4.3 03:01:58 10° NNE 03:07:05 63° ESE 03:08:37 43° SSE
BREEZE-M DEB (TANK) 4.5 03:08:22 29° S 03:08:22 29° S 03:15:03 10° SE
IRS-1D 3.4 03:04:24 10° NNE 03:09:45 79° WNW 03:10:11 73° WSW
Cosmos 1190 Rocket 4.0 03:05:42 10° NNW 03:10:56 79° ENE 03:16:09 10° SSE
BREEZE-M DEB (TANK) 3.9 03:13:25 29° E 03:13:25 29° E 03:14:39 10° E
Cosmos 1633 Rocket 3.9 03:09:12 10° N 03:13:27 49° ENE 03:17:39 10° SSE
Cosmos 44 4.4 03:13:57 29° NNW 03:13:57 29° NNW 03:17:18 10° NNE
ATLAS CENTAUR R/B 3.5 03:12:26 20° SSE 03:14:37 27° ESE 03:18:42 10° ENE
PAYLOAD A 4.5 03:12:24 10° NNE 03:17:06 54° E 03:19:42 26° SSE
ADEOS II 3.1 03:13:30 10° N 03:17:31 32° NW 03:17:31 32° NW
EO 1 Del DPAF 4.4 03:15:13 10° NNE 03:17:08 32° NNE 03:17:08 32° NNE
Meteor 1-5 Rocket 4.4 03:13:40 10° NNW 03:18:00 47° WNW 03:18:00 47° WNW
Cosmos 407 Rocket 3.6 03:15:36 10° NNW 03:27:30 - S 03:20:08 55° WNW
ATLAS 5 CENTAUR R/B 3.7 03:22:01 15° NNW 03:23:33 17° N 03:26:44 10° NE
Cosmos 482 Debris 4.5 03:26:14 56° NE 03:26:14 56° NE 03:30:04 10° E
Cosmos 1666 Rocket 3.6 03:21:33 10° N 03:26:03 79° E 03:30:03 13° SSE
Meteor 1-14 Rocket 4.3 03:22:34 10° NNW 03:28:23 58° W 03:30:18 40° SSW
Cosmos 1515 4.4 03:29:06 34° SSE 03:30:20 49° E 03:33:59 10° NNE
Cosmos 1328 Rocket 4.4 03:28:13 16° SSE 03:31:27 49° E 03:35:43 10° NNE
USA 307 3.4 03:32:44 44° SSE 03:33:12 46° SE 03:37:12 10° ENE
CZ-2C R/B 2.4 03:29:50 10° NNE 03:34:54 80° ESE 03:37:31 28° S
Cosmos 1833 Rocket 2.8 03:32:50 33° SSW 03:35:30 77° ESE 03:41:10 10° NNE
Cosmos 2360 4.1 03:31:54 10° NNW 03:37:35 68° WSW 03:43:13 10° SSE
FENGYUN 3A 3.6 03:34:17 10° N 03:39:38 68° WNW 03:41:44 37° SW
Cosmos 1151 Rocket 2.8 03:39:15 49° SSW 03:40:21 84° WNW 03:44:39 10° N
Meteor 1-11 Rocket 3.8 03:36:41 10° NNW 03:42:42 88° ENE 03:48:40 10° S
USA 306 3.0 03:44:56 50° SSW 03:45:44 63° SSE 03:49:49 10° ENE
ARIANE 5 R/B 2.8 03:44:03 10° NNE 03:49:05 64° ESE 03:54:02 10° S
Cosmos 2098 Rocket 4.3 03:49:34 10° NNW 03:50:20 17° NNW 03:50:20 17° NNW
Cosmos 2082 Rocket 3.2 03:47:11 10° S 03:52:28 45° ESE 03:57:48 10° NE
Lacrosse 4 Rocket 3.6 03:49:09 10° NNW 03:52:51 27° NE 03:56:36 10° E
Cosmos 1153 Rocket 4.4 03:47:06 10° S 03:53:15 88° WNW 03:59:31 10° N
RUBIN 8/PSLV 4.5 03:49:48 10° N 03:54:08 72° WNW 03:56:07 31° SSW
ALOS 2.3 03:50:03 10° N 03:54:38 56° WNW 03:56:16 36° SW
Cosmos 2100 Rocket 4.4 03:48:53 10° S 03:54:56 64° E 04:01:01 10° NNE
Cosmos 1470 Rocket 3.5 03:52:56 10° N 03:57:17 82° ENE 04:01:39 10° SSE
Cosmos 1697 Rocket 2.8 03:52:24 10° NW 03:57:50 49° WSW 04:03:15 10° S
METEOR-M 4.1 03:54:34 10° NNE 03:59:58 87° WNW 04:05:19 10° SSW
COSMOS 2406 3.6 03:55:00 12° SSW 04:00:16 65° ESE 04:05:54 10° NE
Helios 1B rocket 2.3 03:56:41 10° NNE 04:00:46 76° WNW 04:03:02 25° SSW
Cosmos 676 Rocket 3.9 03:55:59 10° NNW 04:01:10 68° WSW 04:06:22 10° SSE
Cosmos 1356 3.3 04:02:57 53° W 04:03:02 53° WNW 04:06:15 10° N
IRS-P3 4.1 03:59:16 10° NNE 04:04:38 88° E 04:09:59 10° SSW
CZ-2D R/B 3.6 04:01:38 10° NNE 04:05:36 68° ESE 04:09:33 10° S
CZ-2D R/B 4.2 04:06:02 10° NW 04:07:04 11° NW 04:07:43 10° NW
ERBS 2.2 04:06:51 48° NW 04:07:04 49° NNW 04:09:54 10° NE
Cosmos 1743 2.6 04:03:54 10° NNW 04:07:39 59° W 04:11:23 10° S
USA 308 2.9 04:06:20 34° SW 04:08:02 72° SSE 04:12:11 10° ENE
CZ-2C R/B 2.5 04:03:07 10° S 04:08:19 68° WSW 04:13:39 10° NNW
BREEZE-M DEB (TANK) 1.7 04:07:52 50° SW 04:08:21 66° SSE 04:12:13 10° E
Cosmos 1624 Rocket 4.0 04:06:31 19° SSW 04:10:18 75° WNW 04:15:40 10° NNE
Cosmos 1536 2.9 04:09:45 10° NNW 04:13:44 54° W 04:17:40 10° S
Cosmos 1441 Rocket 3.0 04:12:34 17° SSW 04:15:20 76° W 04:19:07 10° N
Envisat 3.4 04:10:37 10° NNE 04:15:42 66° ESE 04:20:45 10° S
Meteor 1-4 Rocket 2.7 04:13:23 10° NNW 04:16:54 48° W 04:20:25 10° S
CZ-2C R/B 4.2 04:20:21 10° NNE 04:23:54 38° E 04:27:28 10° SSE
Cosmos 1371 Rocket 4.1 04:20:33 18° SW 04:24:22 55° WNW 04:29:32 10° NNE
Cosmos 1346 Rocket 3.1 04:22:51 21° SW 04:25:12 44° WNW 04:29:02 10° N
Cosmos 2322 Rocket 3.6 04:22:59 10° NNW 04:28:20 39° NE 04:33:38 10° ESE
COSMO-SKYMED 1 3.6 04:26:31 10° SE 04:30:42 50° ENE 04:34:55 10° N
H-2A R/B 3.1 04:30:13 10° NNE 04:33:51 64° E 04:37:29 10° S
Cosmos 1459 Rocket 4.0 04:29:32 10° SSW 04:35:54 75° WNW 04:42:19 10° N
SL-08 R/B 3.4 04:31:28 10° S 04:35:59 49° W 04:40:37 10° NNW
USA 305 2.8 04:33:26 21° WSW 04:36:09 75° NNW 04:40:18 10° ENE
Tsikada Rocket 4.4 04:30:30 10° N 04:36:52 72° ENE 04:43:05 10° SSE
Cosmos 1980 Rocket 2.4 04:32:24 10° NW 04:37:44 47° WSW 04:43:02 10° S
CENTAUR R/B 3.2 04:33:32 10° SSW 04:39:12 55° ESE 04:46:06 10° NE
Cosmos 1869 Rocket 4.0 04:35:00 10° N 04:39:28 68° ENE 04:43:51 10° SSE
Meteor 2-9 Rocket 4.2 04:34:36 10° NNW 04:40:24 73° W 04:46:00 10° S
Meteor 1-29 2.7 04:37:20 10° N 04:40:37 77° WNW 04:43:54 10° SSW
X-37B 1.7 04:42:04 18° SW 04:43:35 28° S 04:46:07 10° ESE
CZ-2C R/B 3.3 04:37:43 10° NNE 04:43:35 88° ESE 04:49:11 10° SSW
Cosmos 1802 Rocket 4.0 04:37:34 10° SSW 04:43:58 81° W 04:50:20 10° N
Cosmos 2369 4.1 04:38:59 10° NW 04:44:14 40° WSW 04:49:27 10° S
Cosmos 1242 Rocket 4.2 04:41:43 10° N 04:44:58 36° ENE 04:48:09 10° SE
Meteor 1-27 Rocket 3.9 04:39:36 10° SSW 04:45:15 54° WNW 04:51:04 10° N
Cosmos 1850 Rocket 4.0 04:40:52 10° NNW 04:46:11 71° WSW 04:51:29 10° SSE
COSMOS 2455 4.1 04:40:47 10° NNW 04:46:28 41° NE 04:52:08 10° ESE
YAOGAN 6 2.9 04:45:48 10° N 04:49:18 45° WNW 04:52:45 10° SW
Cosmos 1633 Rocket 4.3 04:47:45 10° NW 04:50:52 19° W 04:53:58 10° SW
Cosmos 2278 3.7 04:46:18 10° NW 04:51:55 64° WSW 04:57:29 10° SSE
DMSP B5D2-2 4.2 04:47:33 10° SSE 04:52:48 83° ENE 04:58:08 10° NNW
ATLAS CENTAUR R/B 1.9 04:48:27 11° SW 04:53:06 60° NW 04:57:55 10° NE
Cosmos 1725 Rocket 4.1 04:47:30 10° S 04:53:51 87° W 05:00:14 10° N
Cosmos 2056 Rocket 4.1 04:50:11 11° WSW 04:54:42 35° NW 04:59:24 10° N
SL-16 R/B 2.5 04:49:50 10° NNW 04:55:33 75° ENE 05:01:13 10° SE
CZ-4C R/B 3.7 04:51:57 10° S 04:56:01 50° W 05:00:15 10° NNW
NOSS 3-2 (A) 3.6 04:53:59 10° SSW 04:59:27 72° SE 05:05:54 10° NE
Okean 1 3.5 04:56:21 10° SSW 05:00:18 53° WNW 05:04:18 10° N
NOAA 11 4.3 04:55:53 10° NNE 05:01:25 89° ESE 05:06:53 10° SSW
BREEZE-M DEB (TANK) 3.8 04:59:06 12° W 05:01:34 30° SSW 05:07:54 10° SE
Cosmos 1933 Rocket 4.0 04:58:09 10° NNW 05:02:16 38° W 05:06:22 10° SSW
Cosmos 44 Rocket 3.2 04:58:34 10° SW 05:03:16 71° NW 05:08:00 10° NE
Cosmos 1733 Rocket 4.5 04:59:11 10° N 05:03:28 44° ENE 05:07:40 10° SSE
Cosmos 1461 3.5 05:01:01 10° SSW 05:04:56 57° SE 05:09:05 10° NE
Cosmos 2173 Rocket 4.3 05:01:00 10° SW 05:06:49 45° WNW 05:12:39 10° N
Cosmos 1484 Rocket 3.8 05:04:06 10° N 05:07:32 28° WNW 05:10:56 10° SW
GP-B 3.5 05:04:58 10° SSW 05:09:08 40° W 05:13:21 10° NNW
ATLAS 5 CENTAUR R/B 3.9 05:05:59 10° NNW 05:09:42 22° NNE 05:13:58 10° ENE
Spot 4 Rocket 4.2 05:06:09 10° N 05:11:10 54° WNW 05:16:09 10° SW
SJ-6F 4.4 05:07:11 10° N 05:11:21 74° WNW 05:15:28 10° SSW
CZ-2C R/B 3.9 05:09:04 10° NNW 05:12:29 19° NW 05:15:50 10° W
USA 307 3.0 05:08:27 10° W 05:12:34 63° NNW 05:16:44 10° ENE
PSLV R/B 3.6 05:08:39 10° N 05:12:58 63° WNW 05:17:12 10° SSW
Cosmos 1741 Rocket 4.3 05:09:41 10° NW 05:14:37 44° WSW 05:19:32 10° S
Meteor 1-31 Rocket 4.2 05:12:37 10° NNE 05:16:16 42° E 05:19:55 10° S
Orbus 7S? 4.2 05:12:51 10° W 05:16:21 60° NNW 05:23:54 10° ENE
Cosmos 1733 4.0 05:12:41 10° N 05:16:23 57° ENE 05:20:03 10° SSE
OPS 6432 4.1 05:14:32 10° NW 05:17:30 78° SW 05:20:45 10° SE
SKYMED 2 3.6 05:14:28 10° S 05:18:46 58° W 05:23:04 10° NNW
CZ-4B R/B 3.7 05:14:23 10° NNE 05:19:39 89° WNW 05:24:56 10° SSW
Cosmos 1833 Rocket 3.8 05:15:20 10° W 05:20:02 26° NW 05:24:46 10° NNE
Cosmos 2333 Rocket 3.5 05:16:24 10° NNW 05:21:51 43° NE 05:27:14 10° ESE
CZ-3 R/B 4.3 05:16:20 10° SW 05:27:41 20° SSW 05:33:15 10° SSE
BREEZE M DEB (TANK) 3.9 05:17:51 10° W 05:33:31 78° SSW 05:37:31 10° ESE
